DW7890 Weather Reports


time (UTC)temp
F
wind
direction
speed
knots
gust
knots
rain 1hr
in
rain 24hr
in
rain mn
in
humidity
%
barometer
mb
20260906154513 82 32 0.0 0.0 0.00 0.00 0.00 75 1015.2
20260906153012 81 52 0.0 0.0 0.00 0.00 0.00 75 1015.1
20260906151510 81 25 0.0 0.0 0.00 0.00 0.00 78 1014.9
20260906150016 80 59 0.0 0.0 0.00 0.00 0.00 78 1014.6
20260906144507 80 46 0.0 0.0 0.00 0.00 0.00 80 1014.4
20260906143006 79 44 0.0 0.0 0.00 0.00 0.00 81 1014.5
20260906141505 78 59 0.0 0.0 0.00 0.00 0.00 83 1014.3
20260906140011 77 53 0.0 0.0 0.00 0.00 0.00 84 1014.3
20260906134506 77 53 0.0 0.0 0.00 0.00 0.00 85 1014.2
20260906133006 76 57 0.0 0.0 0.00 0.00 0.00 86 1014.3
20260906131504 75 51 0.0 0.0 0.00 0.00 0.00 87 1014.4
20260906130003 75 46 0.0 0.0 0.00 0.00 0.00 88 1014.4
20260906124502 75 20 0.0 0.0 0.00 0.00 0.00 88 1014.3
20260906123002 74 41 0.0 0.0 0.00 0.00 0.00 88 1014.2
20260906121605 74 43 0.0 0.0 0.00 0.00 0.00 89 1013.9
20260906120106 74 46 0.0 0.0 0.00 0.00 0.00 88 1013.8
20260906114608 74 46 0.0 0.0 0.00 0.00 0.00 88 1013.4
20260906113054 74 46 0.0 0.0 0.00 0.00 0.00 88 1013.3
20260906111619 75 32 0.0 0.0 0.00 0.00 0.00 88 1013.4
20260906110052 75 32 0.0 0.0 0.00 0.00 0.00 88 1013.4
20260906104549 75 32 0.0 0.0 0.00 0.00 0.00 88 1013.2
20260906103046 76 43 0.0 0.0 0.00 0.00 0.00 88 1013.1
20260906101545 76 42 0.0 0.0 0.00 0.00 0.00 88 1013.1
20260906100044 76 42 0.0 0.0 0.00 0.00 0.00 88 1012.8
20260906094541 77 42 0.0 0.0 0.00 0.00 0.00 87 1012.5
20260906093049 77 41 0.0 0.0 0.00 0.00 0.00 87 1012.7
20260906091537 78 50 0.0 0.0 0.00 0.00 0.00 86 1012.6
20260906090036 78 44 0.0 0.0 0.00 0.00 0.00 86 1012.5
20260906084533 79 51 0.0 0.0 0.00 0.00 0.00 86 1012.4
20260906083030 79 50 0.0 0.0 0.00 0.00 0.00 86 1012.1
20260906081544 80 51 0.0 0.0 0.00 0.00 0.00 86 1012.0
20260906080027 80 53 0.0 0.0 0.00 0.00 0.00 85 1012.0
20260906074526 80 54 0.0 0.0 0.00 0.00 0.00 85 1012.0
20260906073039 81 55 0.0 0.0 0.00 0.00 0.00 85 1012.2
20260906071522 81 46 0.0 0.0 0.00 0.00 0.00 85 1012.2
20260906070032 81 5 0.0 0.0 0.00 0.00 0.00 83 1012.0
20260906064518 82 9 0.0 0.0 0.00 0.00 0.00 80 1012.1
20260906063016 83 9 0.0 0.0 0.00 0.00 0.00 80 1012.2
20260906061516 83 360 0.0 0.0 0.00 0.00 0.00 79 1012.1
20260906060015 83 348 0.0 0.0 0.00 0.00 0.00 79 1012.1
20260906054520 82 346 0.0 0.0 0.00 0.00 0.00 78 1012.1
20260906053012 83 346 0.0 0.0 0.00 0.00 0.00 77 1012.2
20260906051519 83 346 0.0 0.0 0.00 0.00 0.00 76 1012.2
20260906050008 83 346 0.0 0.0 0.00 0.00 0.00 74 1012.0
20260906044509 84 346 0.0 0.0 0.00 0.00 0.00 73 1012.0
20260906043007 84 346 0.0 0.0 0.00 0.00 0.00 72 1011.8
20260906041508 84 346 0.0 0.0 0.00 0.00 0.00 71 1011.8
20260906040007 85 346 0.0 0.0 0.00 0.00 0.00 70 1011.5
20260906034506 85 346 0.0 0.0 0.00 0.00 0.00 69 1011.6
20260906033006 85 346 0.0 0.0 0.00 0.00 0.00 68 1011.5
20260906031509 86 346 0.0 0.0 0.00 0.00 0.00 67 1011.5
20260906030005 86 346 0.0 0.0 0.00 0.00 0.00 66 1011.3
20260906024504 86 346 0.0 0.0 0.00 0.00 0.00 66 1011.1
20260906023003 86 347 0.0 0.0 0.00 0.00 0.00 66 1010.9
20260906021504 87 347 0.0 0.0 0.00 0.00 0.00 65 1010.6
20260906020003 87 347 0.0 0.0 0.00 0.00 0.00 64 1010.5
20260906014503 88 347 0.0 0.0 0.00 0.00 0.00 63 1010.3
20260906013003 88 347 0.0 0.0 0.00 0.00 0.00 63 1010.0
20260906011502 89 347 0.0 0.0 0.00 0.00 0.00 62 1009.9
20260906010002 90 347 0.0 0.0 0.00 0.00 0.00 60 1009.9
20260906004502 90 347 0.0 0.0 0.00 0.00 0.00 60 1009.8
20260906003001 91 346 0.0 0.0 0.00 0.00 0.00 58 1009.7
20260906001601 92 349 0.0 0.0 0.00 0.00 0.00 56 1009.9
20260906000109 93 355 0.0 0.0 0.00 0.00 0.00 55 1009.9
20260905234603 93 355 0.0 0.0 0.00 0.00 0.00 55 1009.7
20260905233059 93 355 0.0 0.0 0.00 0.00 0.00 53 1009.8
20260905231559 95 355 0.0 0.0 0.00 0.00 0.00 51 1010.0
20260905230101 95 344 0.0 0.0 0.00 0.00 0.00 50 1010.0
20260905224607 96 348 0.0 0.0 0.00 0.00 0.00 48 1009.9
20260905223057 97 323 0.0 0.0 0.00 0.00 0.00 46 1009.7
20260905221557 99 355 0.0 0.0 0.00 0.00 0.00 45 1009.6
20260905214557 100 50 0.0 0.0 0.00 0.00 0.00 43 1009.7
20260905213055 99 14 0.0 0.0 0.00 0.00 0.00 43 1009.7
20260905211555 99 47 0.0 0.0 0.00 0.00 0.00 43 1009.6
20260905210052 99 45 0.0 0.0 0.00 0.00 0.00 44 1009.9
20260905204552 100 355 0.0 0.0 0.00 0.00 0.00 44 1010.1
20260905203051 101 343 0.0 0.0 0.00 0.00 0.00 42 1010.0
20260905201550 101 36 0.0 0.0 0.00 0.00 0.00 45 1010.2
20260905200054 102 47 0.0 0.0 0.00 0.00 0.00 42 1010.1
20260905194547 101 301 0.0 0.0 0.00 0.00 0.00 41 1010.2
20260905193045 101 346 0.0 0.0 0.00 0.00 0.00 40 1010.5
20260905191546 101 345 0.0 0.0 0.00 0.00 0.00 41 1010.7
20260905190051 100 277 0.0 0.0 0.00 0.00 0.00 42 1010.8
20260905184605 100 319 0.0 0.0 0.00 0.00 0.00 41 1010.9
20260905183046 101 277 0.0 0.0 0.00 0.00 0.00 40 1011.1
20260905181538 101 281 0.0 0.0 0.00 0.00 0.00 41 1011.2
20260905180035 100 296 0.0 0.0 0.00 0.00 0.00 42 1011.3
20260905174534 100 255 0.0 0.0 0.00 0.00 0.00 43 1011.5
20260905173034 99 252 0.0 0.0 0.00 0.00 0.00 46 1011.6
20260905171535 99 360 0.0 0.0 0.00 0.00 0.00 48 1011.7
20260905170028 98 274 0.0 0.0 0.00 0.00 0.00 47 1012.1
20260905164533 97 59 0.0 0.0 0.00 0.00 0.00 48 1012.1
20260905163025 97 333 0.0 0.0 0.00 0.00 0.00 49 1012.2
20260905161522 97 313 0.0 0.0 0.00 0.00 0.00 50 1012.3
20260905160020 96 9 0.0 0.0 0.00 0.00 0.00 51 1012.4